ATLAS D DEB, 2337

Orbit data source: Space-Track

ATLAS D DEB, 2337 is space debris in LEO originally from a launch on Thu, 14 Jul 1966 UTC launched from the Air Force Western Test Range (AFWTR). Debris objects in space refer to the collection of defunct objects orbiting the Earth. Examples of debris include non-operational satellites, rocket bodies, and fragments generated from explosions, collisions, or faulty payload assembly.

Loading next visibility...
Identifier
2337, 1966-063E
Orbit
LEO
Last TLE update
8 hours ago
Origin
Manufacturer
Unknown
Mission
Spacecraft
Bus & Motor
Unknown
Mass
9 kg wet, 9 kg dry
Launch date (UTC)
1966-07-14 (59 years ago)
Launch vehicle
Unknown
Launch site
Air Force Western Test Range (AFWTR)
Object type
Payload
Rocket body
Debris
Shape & HBR
Trunc Cone, 0.7 m
Radar Cross Section
0.700 m², Medium (>0.1 m² and < 1m²)

Expand to show TLE details & history

TLE from 8 hours ago
0 ATLAS D DEB
1 02337U 66063E   25188.94917568  .00000338  00000-0  97282-4 0  9995
2 02337 144.2324 308.3492 0005229 175.7695 306.9287 13.72212081954767
Epoch: 2025-07-07T22:46Z
TLE epoch observation values (Epoch: 2025-07-07T22:46:48.778Z)
Latitude
29.59829°
Longitude
-87.83521°
Altitude
989.172 km
Speed
7.363 km/s
True Right ascension
12h 00m 04s
True Declination
29° 27' 20"
Sunlit
Object was in daylight at epoch
Visualization orbit readout
Latitude
-22.64913°
Longitude
77.29646°
Altitude
999.268 km
Speed
7.352 km/s
Apparent Right ascension
01h 54m 53s
Apparent Declination
-47° 26' 26"
Sunlit
Object is in full shadow
Visualization observer readout
Local Sidereal Time
18:48:34
Azimuth
124.234° SE
Elevation
-38.365°
Doppler factor
1
Orbital elements
Apogee altitude
998.414 km
Perigee altitude
990.704 km
Semi-major axis
7,372.696 km
Eccentricity
0.00052
Inclination
144.2324°
RAAN
308.3492°
Arg. of periapsis
175.7695°
True anomaly
Unknown
Mean anomaly
306.9287°
Eccentric anomaly
Unknown
Mean motion
3.4285 °/min
Orbital period
105 mins
BSTAR
0.000097282
Loading maneuver chart data...
Loading SW <> Apogee altitude chart data...
Loading historical data...
Loading historical data...
Loading historical data...
Loading historical data...
Loading historical data...
Loading historical data...
Loading historical data...

ATLAS D DEB Visibility forecast

Observer location: undefined°, undefined°

Span
Click to sort rows by Start time (UTC) header in descending order
Start Az.
Max El. time (UTC)
Max El. Az.
Max El.
End time (UTC)
End Az.
7 mins2025-07-08 23:13:08.393Z117.87° SE2025-07-08 23:16:08.393Z157.686° S21.099°2025-07-08 23:20:08.393Z202.119° SSW
9 mins2025-07-09 00:51:08.393Z98.4° ESE2025-07-09 00:55:08.393Z157.81° S35.572°2025-07-09 01:00:08.393Z234.001° WSW
10 mins2025-07-09 02:30:08.393Z101.129° ESE2025-07-09 02:35:08.393Z198.605° SSW40.822°2025-07-09 02:40:08.393Z257.66° W
9 mins2025-07-09 04:10:08.393Z123.349° SE2025-07-09 04:14:08.393Z195.706° SSW38.085°2025-07-09 04:19:08.393Z265.509° W
8 mins2025-07-09 05:50:08.393Z157.675° S2025-07-09 05:53:08.393Z197.594° SSW25.289°2025-07-09 05:58:08.393Z259.957° W
|